Weather in Algazino

Russia / Chuvash Republic     55°35′49″N   46°56′36″E
temp.,
°C
wind,
m/s
gust,
m/s
humid.,
%
clouds,
%
prec.,
mm/h
press.,
hPa
HPBL,
m
14 april, wed
wed1400:00+8s33675 0.0 103029
03:00+7s336858 0.0 103018
06:00+7sse33694 0.0 102930
09:00+13sse46535 0.0 1028335
12:00+17sse56425 0.0 1026919
15:00+18sse57475 0.0 10251104
18:00+15se48695 0.0 1023177
21:00+11sse49865 0.0 1023148
15 april, thu
thu1500:00+10sse36890 0.0 102295
03:00+9sse33900 0.0 102126
06:00+9s23900 0.0 102144
09:00+15ssw23630 0.0 1020471
12:00+18sw23457 0.0 10191582
15:00+19w223851 0.0 10181974
18:00+15nw335412 0.0 101840
21:00+12n1261100 0.0 101910
16 april, fri
fri1600:00+10nne6108850 0.0 1020275
03:00+7ne6118878 0.0 1021357
06:00+6ne61185100 0.0 1023458
09:00+8ene797598 0.0 1024634
12:00+11ene676384 0.0 10241041
15:00+13ene675451 0.0 10241270
18:00+10ne59555 0.0 1025390
21:00+6ne411615 0.0 1027260
17 april, sat
sat1700:00+4ne410674 0.0 1027217
03:00+2ne38725 0.0 1028167
06:00+2ne38700 0.0 1029210
09:00+7ne57465 0.0 1029702
12:00+10ne57375 0.0 10291372
15:00+11ne56376 0.0 10281645
18:00+9ne46525 0.0 1028184
21:00+5ne33665 0.0 102932
18 april, sun
sun1800:00+4ne34714 0.0 103054
03:00+2nne37780 0.0 1031121
06:00+2ne37810 0.0 1032198
09:00+7ne45550 0.0 1032706
12:00+10ne34475 0.0 10311302
15:00+11nne444322 0.0 10311705
18:00+9ne475571 0.0 1031249
21:00+5ene34715 0.0 103267